Location: Bednik
(45.3500°N, 16.3833°E)
Time: 06:32:25
(UTC+00:00)

Meteor 1-19 Rocket - Pass Details

Date: 08 August 2020
Orbit: 811 x 924 km, 81.2° (Epoch: 23 September)

Event Time Altitude Azimuth Distance (km) Brightness Sun altitude
Rises 20:32:42 0° 351° (N) 3,346 8.4 -20.3°
Reaches altitude 10° 20:35:07 10° 354° (N) 2,408 7.4 -20.6°
Maximum altitude 20:40:31 68° 77° (ENE) 877 4.1 -21.2°
Enters shadow 20:42:04 46° 142° (SE) 1,088 4.3 -21.3°
